Date String (YYYY-MM-DD hh:mm:ss) UTC,Instrument flags,absolute air pressure of the measurement (hPa),sample flow rate (lpm),inlet stack bypass flow (lpm),air temperature of the measurement (°C),ambient temperature measured by the external sensor (°C),aerosol sample conditioner tube jacket temperature (°C),OPC LED temperature (°C),internal box temperature (°C),relative humidity of the measurement (%),span deviation,mass concentration of particles derived from Lorenz-Mie calculation of OPC scattering (μg/m³),mass concentration of particles derived from Lorenz-Mie calculation of OPC scattering (μg/m³),mass concentration of particles derived from Lorenz-Mie calculation of OPC scattering (μg/m³)
DateTimeUTC,F1_M11,P_M11,Q1_M11,Q2_M11,T1_M11,T2_M11,T3_M11,T4_M11,T5_M11,U1_M11,ZSPAN_M11,X0_M11,X2_M11,X1_M11
2024-01-24 14:00:00,SystemResetWarning,0826.6,5.01,000.00,021.1,020.0,000.0,029.5,022.5,17.3,0001.2,0009.52,0006.60,0006.28
2024-01-24 14:01:00,SystemResetWarning,0826.6,5.01,000.00,021.1,020.1,000.0,029.5,022.5,17.0,0001.1,0009.40,0006.54,0006.24
2024-01-24 14:02:00,SystemResetWarning,0826.6,5.00,000.00,021.1,020.1,000.0,029.5,022.5,16.9,0001.0,0009.12,0006.60,0006.31
2024-01-24 14:03:00,SystemResetWarning,0826.6,4.99,000.00,021.1,020.1,000.0,029.5,022.5,16.9,0001.0,0009.31,0006.75,0006.43
2024-01-24 14:04:00,SystemResetWarning,0826.6,5.00,000.00,021.1,020.1,000.0,029.5,022.5,16.9,0001.2,0009.50,0006.84,0006.49
2024-01-24 14:05:00,SystemResetWarning,0826.6,4.99,000.00,021.1,020.0,000.0,029.5,022.5,16.7,0001.1,0009.49,0006.85,0006.50
2024-01-24 14:06:00,SystemResetWarning,0826.6,5.00,000.00,021.1,020.0,000.0,029.5,022.5,16.9,0000.8,0010.00,0006.82,0006.46
2024-01-24 14:07:00,SystemResetWarning,0826.6,4.99,000.00,021.1,020.1,000.0,029.5,022.5,17.4,0000.6,0010.15,0006.78,0006.39
2024-01-24 14:08:00,SystemResetWarning,0826.6,5.00,000.00,021.1,020.1,000.0,029.5,022.5,17.5,0000.8,0010.04,0006.66,0006.27
2024-01-24 14:09:00,SystemResetWarning,0826.6,5.00,000.00,021.1,020.1,000.0,029.5,022.5,17.6,0001.2,0009.88,0006.56,0006.17
2024-01-24 14:10:00,SystemResetWarning,0826.6,5.00,000.00,021.1,020.1,000.0,029.5,022.5,17.6,0001.4,0009.86,0006.53,0006.14
2024-01-24 14:11:00,SystemResetWarning,0826.6,5.00,000.00,021.1,020.2,000.0,029.5,022.5,17.7,0001.7,0010.02,0006.65,0006.26
2024-01-24 14:12:00,SystemResetWarning,0826.6,5.01,000.00,021.1,020.2,000.0,029.5,022.5,17.6,0001.5,0010.32,0006.78,0006.36
2024-01-24 14:13:00,SystemResetWarning,0826.6,5.00,000.00,021.1,020.2,000.0,029.5,022.5,17.6,0002.3,0010.80,0006.87,0006.42
2024-01-24 14:14:00,SystemResetWarning,0826.6,5.00,000.00,021.1,020.2,000.0,029.5,022.5,17.5,0002.5,0011.30,0006.84,0006.38
2024-01-24 14:15:00,SystemResetWarning,0826.6,5.00,000.00,021.1,020.2,000.0,029.5,022.5,17.5,0002.7,0011.16,0006.81,0006.37
2024-01-24 14:16:00,SystemResetWarning,0826.6,5.00,000.00,021.1,020.3,000.0,029.5,022.5,17.6,0002.7,0011.15,0006.85,0006.41
2024-01-24 14:17:00,SystemResetWarning,0826.6,5.00,000.00,021.1,020.3,000.0,029.5,022.5,17.7,0002.8,0010.57,0006.84,0006.42
2024-01-24 14:18:00,SystemResetWarning,0826.6,5.00,000.00,021.1,020.3,000.0,029.5,022.5,17.6,0002.8,0010.35,0006.81,0006.40
2024-01-24 14:19:00,SystemResetWarning,0826.6,5.00,000.00,021.1,020.3,000.0,029.5,022.5,17.7,0002.7,0010.41,0006.76,0006.36
2024-01-24 14:20:00,SystemResetWarning,0826.6,5.00,000.00,021.1,020.3,000.0,029.5,022.6,17.7,0002.6,0010.36,0006.71,0006.30
2024-01-24 14:21:00,SystemResetWarning,0826.6,5.00,000.00,021.1,020.3,000.0,029.5,022.6,17.7,0002.3,0010.31,0006.67,0006.26
2024-01-24 14:22:00,SystemResetWarning,0826.6,5.00,000.00,021.1,020.3,000.0,029.5,022.6,17.7,0002.3,0010.23,0006.60,0006.17
2024-01-24 14:23:00,SystemResetWarning,0826.6,5.00,000.00,021.1,020.3,000.0,029.5,022.5,17.7,0002.1,0009.95,0006.45,0006.02
2024-01-24 14:24:00,SystemResetWarning,0826.6,5.00,000.00,021.1,020.3,000.0,029.5,022.5,17.7,0001.5,0009.57,0006.25,0005.86
2024-01-24 14:25:00,SystemResetWarning,0826.6,5.00,000.00,021.1,020.3,000.0,029.5,022.5,17.7,0001.3,0008.92,0006.05,0005.69
2024-01-24 14:26:00,SystemResetWarning,0826.6,5.00,000.00,021.1,020.3,000.0,029.5,022.5,17.6,0001.3,0008.77,0005.92,0005.59
2024-01-24 14:27:00,SystemResetWarning,0826.6,5.00,000.00,021.1,020.3,000.0,029.5,022.6,17.7,0001.9,0008.65,0005.78,0005.44
2024-01-24 14:28:00,SystemResetWarning,0826.7,5.00,000.00,021.1,020.3,000.0,029.5,022.5,17.8,0001.1,0008.50,0005.63,0005.31
2024-01-24 14:29:00,SystemResetWarning,0826.7,5.00,000.00,021.1,020.3,000.0,029.5,022.5,17.7,0001.2,0008.46,0005.58,0005.28
2024-01-24 14:30:00,SystemResetWarning,0826.7,5.00,000.00,021.1,020.3,000.0,029.5,022.5,17.8,0001.7,0008.44,0005.65,0005.37
2024-01-24 14:31:00,SystemResetWarning,0826.7,5.00,000.00,021.1,020.3,000.0,029.5,022.5,17.9,0001.9,0008.51,0005.73,0005.46
2024-01-24 14:32:00,SystemResetWarning,0826.7,5.00,000.00,021.1,020.3,000.0,029.5,022.5,17.9,0002.1,0008.59,0005.76,0005.50
2024-01-24 14:33:00,SystemResetWarning,0826.6,5.00,000.00,021.1,020.3,000.0,029.5,022.5,17.9,0001.9,0008.73,0005.82,0005.55
2024-01-24 14:34:00,SystemResetWarning,0826.7,5.00,000.00,021.1,020.3,000.0,029.5,022.5,17.8,0002.1,0009.20,0005.93,0005.66
2024-01-24 14:35:00,SystemResetWarning,0826.7,5.00,000.00,021.1,020.3,000.0,029.5,022.5,17.8,0002.7,0009.39,0006.05,0005.79
2024-01-24 14:36:00,SystemResetWarning,0826.8,5.00,000.00,021.1,020.3,000.0,029.5,022.5,17.9,0002.8,0009.35,0006.20,0005.93
2024-01-24 14:37:00,SystemResetWarning,0826.8,5.00,000.00,021.1,020.3,000.0,029.5,022.5,17.9,0002.7,0009.53,0006.32,0006.02
2024-01-24 14:38:00,SystemResetWarning,0826.8,5.00,000.00,021.1,020.3,000.0,029.5,022.5,17.9,0002.0,0009.70,0006.46,0006.15
2024-01-24 14:39:00,SystemResetWarning,0826.8,5.00,000.00,021.1,020.3,000.0,029.5,022.5,18.0,0001.6,0009.87,0006.62,0006.31
2024-01-24 14:40:00,SystemResetWarning,0826.8,5.00,000.00,021.1,020.3,000.0,029.5,022.5,18.1,0001.9,0009.97,0006.74,0006.40
2024-01-24 14:41:00,SystemResetWarning,0826.8,5.00,000.00,021.1,020.3,000.0,029.5,022.5,17.9,0001.9,0009.93,0006.75,0006.40
2024-01-24 14:42:00,SystemResetWarning,0826.8,5.01,000.00,021.1,020.3,000.0,029.5,022.5,17.9,0001.9,0010.10,0006.81,0006.43
2024-01-24 14:43:00,SystemResetWarning,0826.8,5.01,000.00,021.1,020.3,000.0,029.5,022.5,17.9,0002.0,0010.13,0006.83,0006.46
2024-01-24 14:44:00,SystemResetWarning,0826.8,5.00,000.00,021.1,020.3,000.0,029.5,022.5,18.1,0001.9,0010.10,0006.82,0006.45
2024-01-24 14:45:00,SystemResetWarning,0826.8,5.00,000.00,021.1,020.3,000.0,029.5,022.5,18.2,0001.8,0010.22,0006.80,0006.43
2024-01-24 14:46:00,SystemResetWarning,0826.8,4.99,000.00,021.1,020.2,000.0,029.4,022.5,18.1,0001.8,0010.10,0006.81,0006.46
2024-01-24 14:47:00,SystemResetWarning,0826.8,5.00,000.00,021.1,020.2,000.0,029.4,022.5,18.1,0002.0,0010.08,0006.81,0006.46
2024-01-24 14:48:00,SystemResetWarning,0826.8,5.00,000.00,021.1,020.2,000.0,029.4,022.5,18.0,0001.8,0010.04,0006.84,0006.49
2024-01-24 14:49:00,SystemResetWarning,0826.8,4.99,000.00,021.1,020.1,000.0,029.4,022.5,18.0,0001.8,0009.98,0006.84,0006.51
2024-01-24 14:50:00,SystemResetWarning,0826.8,4.99,000.00,021.1,020.1,000.0,029.4,022.5,18.0,0002.1,0010.11,0006.88,0006.52
2024-01-24 14:51:00,SystemResetWarning,0826.8,5.01,000.00,021.1,020.1,000.0,029.4,022.5,17.9,0002.1,0010.14,0006.89,0006.53
2024-01-24 14:52:00,SystemResetWarning,0826.8,5.00,000.00,021.1,020.0,000.0,029.4,022.5,18.0,0002.0,0010.21,0006.91,0006.54
2024-01-24 14:53:00,SystemResetWarning,0826.8,5.01,000.00,021.1,020.1,000.0,029.4,022.5,18.1,0001.5,0011.04,0006.94,0006.56
2024-01-24 14:54:00,SystemResetWarning,0826.8,5.00,000.00,021.1,020.0,000.0,029.4,022.5,18.0,0001.2,0011.13,0006.95,0006.59
2024-01-24 14:55:00,SystemResetWarning,0826.8,5.00,000.00,021.1,020.1,000.0,029.4,022.5,18.0,0000.3,0011.16,0006.98,0006.64
2024-01-24 14:56:00,SystemResetWarning,0826.8,4.99,000.00,021.1,020.1,000.0,029.4,022.5,17.9,0001.8,0011.06,0007.04,0006.67
2024-01-24 14:57:00,SystemResetWarning,0826.8,5.00,000.00,021.1,020.1,000.0,029.4,022.5,17.8,0001.8,0010.67,0007.04,0006.69
2024-01-24 14:58:00,SystemResetWarning,0826.8,5.00,000.00,021.1,020.1,000.0,029.4,022.5,17.8,0002.1,0010.74,0007.09,0006.72
2024-01-24 14:59:00,SystemResetWarning,0826.8,5.01,000.00,021.1,020.1,000.0,029.4,022.5,17.8,0002.3,0011.18,0007.08,0006.74
